COSMOS 2251 DEB, 35836

Orbit data source: Space-Track

COSMOS 2251 DEB, 35836 is space debris in LEO originally from a launch on Wed, 16 Jun 1993 UTC launched from the Plesetsk Missile And Space Complex (PKMTR). The debris from Iridium 33, an American commercial communications satellite, has been tracked extensively since its accidental collision with the defunct Russian satellite Cosmos 2251 in 2009. This event, occurring at high speed in low Earth orbit (LEO), generated thousands of pieces of space debris, significantly increasing the risk of further collisions. The Iridium 33 debris cloud has impacted space traffic management and orbital debris mitigation strategies, making it a subject of ongoing study in space situational awareness.

Loading next visibility...
Identifier
35836, 1993-036ATJ
Orbit
LEO
Country
Flag of CISCIS
Related business
Manufacturer
Unknown
Mission
Spacecraft
Bus & Motor
Unknown
Mass
Unknown
Launch date (UTC)
1993-06-16 (33 years ago)
Launch vehicle
Unknown
Launch site
Plesetsk Missile And Space Complex (PKMTR)
Object type
Payload
Rocket body
Debris
Shape & HBR
Unknown shape, 0.1 m
Radar Cross Section
Small (<0.1 m²)

Expand to show TLE details & history
Last TLE update: 2 days ago

TLE from 2 days ago
0 COSMOS 2251 DEB
1 35836U 93036ATJ 26252.05206302  .00008577  00000-0  12294-2 0  9998
2 35836  74.0327   5.1922 0022863 356.6654   3.4364 14.76488172675034
Epoch: 2026-09-09T01:14Z
TLE epoch observation values (Epoch: 2026-09-09T01:14:58.244Z)
Latitude
-0.00004°
Longitude
-1.66016°
Altitude
627.071 km
Speed
7.554 km/s
True Right ascension
00h 20m 46s
True Declination
0° 00' 00"
Sunlit
Object was in full shadow at epoch
Visualization orbit readout
Latitude
Unknown
Longitude
Unknown
Altitude
Unknown
Speed
Unknown
Apparent Right ascension
Unknown
Apparent Declination
Unknown
Sunlit
N/A
Visualization observer readout
Local Sidereal Time
04:36:29
Azimuth
Unknown
Elevation
Unknown
Doppler factor
Unknown
Orbital elements
Apogee altitude
654.052 km
Perigee altitude
621.97 km
Semi-major axis
7,016.148 km
Eccentricity
0.00229
Inclination
74.0327°
RAAN
5.1922°
Arg. of periapsis
356.6654°
True anomaly
3.45215°
Mean anomaly
3.4364°
Eccentric anomaly
3.44427°
Mean motion
3.69313 °/min
Orbital period
97.48 mins
BSTAR
0.0012294
Loading maneuver chart data...
Computing Atmospheric mass density...

Documentation

Showing up to 5 results
|